Flag for Hong Kong Weather past 2 weeks in Kowloon, Hong Kong

Now
79 °F

Passing clouds.


Feels Like: 81 °F
Forecast: 70 / 77 °F
Wind: 7 mph from West

Location: National Airport

Current Time: Mar 29, 2015 at 3:03:52 PM

Latest Report: Mar 29, 2015 at 2:30 PM


Visibility: N/A

Pressure: 29.95 "Hg

Humidity: 61%

Dew point: 64 °F

Location of KowloonLocation

Historic Weather in Kowloon — Graph

°F

Kowloon temperature yesterday

Maximum temperature yesterday: 79 °F (at 3:00 PM)
Minimum temperature yesterday: 68 °F (at 2:00 AM)
Average temperature yesterday: 72 °F

Past Weeks' High & Low Weather Summary

 TemperatureHumidityPressure
High84 °F (Mar 20, 3:00 PM)94% (Mar 17, 5:30 AM)30.30 "Hg (Mar 17, 5:30 AM)
Low63 °F (Mar 25, 12:30 PM)47% (Mar 23, 11:30 AM)29.80 "Hg (Mar 17, 5:00 PM)
Average73 °F75%30.04 "Hg
* Reported Mar 14 2:00 PM — Mar 29 2:00 PM, Kowloon, Weather by CustomWeather, © 2015

Note: Actual official high and low records may vary slightly from our data, if they occured in-between our weather recording intervals... More about our weather records

Advertising

Kowloon weather history for previous 24 hours

 ConditionsComfort  
Time TempWeatherWind HumidityBarometerVisibility
2:00 PM
Sun, Mar 29
77 °FPassing clouds.8 mph65%29.98 "HgN/A
1:30 PM77 °FPassing clouds.7 mph61%29.98 "HgN/A
1:00 PM77 °FPassing clouds.7 mph61%30.01 "HgN/A
12:30 PM79 °FPassing clouds.6 mph61%30.04 "HgN/A
12:00 PM77 °FPassing clouds.6 mph65%30.04 "Hg6 mi
11:30 AM75 °FScattered clouds.8 mph65%30.07 "HgN/A
11:00 AM75 °FScattered clouds.7 mph69%30.07 "HgN/A
10:30 AM75 °FScattered clouds.7 mph69%30.07 "HgN/A
10:00 AM75 °FScattered clouds.8 mph69%30.07 "HgN/A
9:30 AM75 °FScattered clouds.8 mph65%30.07 "Hg6 mi
9:00 AM73 °FScattered clouds.8 mph69%30.07 "Hg6 mi
8:30 AM73 °FScattered clouds.8 mph69%30.04 "HgN/A
8:00 AM72 °FScattered clouds.6 mph73%30.04 "HgN/A
7:30 AM72 °FScattered clouds.8 mph78%30.01 "Hg6 mi
7:00 AM70 °FScattered clouds.5 mph83%30.01 "Hg5 mi
6:30 AM70 °FScattered clouds.5 mph83%30.01 "Hg4 mi
6:00 AM72 °FPassing clouds.5 mph78%30.01 "Hg5 mi
5:30 AM70 °FPassing clouds.3 mph83%30.01 "Hg6 mi
5:00 AM72 °FPassing clouds.2 mph78%30.01 "Hg5 mi
4:30 AM72 °FPassing clouds.3 mph78%29.98 "Hg6 mi
4:00 AM70 °FPassing clouds.6 mph83%29.98 "Hg6 mi
3:30 AM70 °FPassing clouds.2 mph83%29.98 "Hg6 mi
3:00 AM70 °FPassing clouds.3 mph83%30.01 "HgN/A
2:30 AM70 °FPassing clouds.5 mph78%30.01 "HgN/A
2:00 AM70 °FPassing clouds.2 mph78%30.01 "HgN/A
1:30 AM70 °FPassing clouds.5 mph78%30.01 "HgN/A
1:00 AM72 °FPassing clouds.3 mph73%30.01 "HgN/A
12:30 AM70 °FPassing clouds.5 mph78%30.04 "HgN/A
12:00 AM72 °FPassing clouds.5 mph73%30.04 "HgN/A
11:30 PM
Sat, Mar 28
72 °FPassing clouds.3 mph73%30.04 "HgN/A
11:00 PM72 °FPassing clouds.5 mph73%30.04 "HgN/A
10:30 PM72 °FPassing clouds.6 mph69%30.04 "HgN/A
10:00 PM72 °FPassing clouds.15 mph73%30.04 "HgN/A
9:30 PM72 °FPassing clouds.13 mph73%30.04 "HgN/A
9:00 PM70 °FPassing clouds.13 mph78%30.04 "HgN/A
8:30 PM72 °FPassing clouds.9 mph73%30.04 "HgN/A
8:00 PM72 °FPassing clouds.8 mph73%30.04 "HgN/A
7:30 PM72 °FPassing clouds.9 mph73%30.04 "HgN/A
7:00 PM72 °FPassing clouds.6 mph73%30.01 "HgN/A
6:30 PM73 °FPassing clouds.7 mph69%30.01 "HgN/A
6:00 PM75 °FPassing clouds.7 mph65%30.01 "HgN/A
5:30 PM75 °FPassing clouds.10 mph65%30.01 "HgN/A
5:00 PM75 °FPassing clouds.10 mph65%30.01 "HgN/A
4:30 PM77 °FPassing clouds.9 mph61%30.01 "HgN/A
4:00 PM77 °FPassing clouds.8 mph61%29.98 "HgN/A
3:30 PM77 °FPassing clouds.5 mph61%30.01 "HgN/A
3:00 PM79 °FPassing clouds.6 mph58%30.01 "HgN/A
Weather by CustomWeather, © 2015

See weather overviewHow to use our weather pages